Wind_Speed
35 34 33 36 38 39 39 43 40 40 42 38 34 32 33 31 27 24 19 17 15 16 14 14 14 13 12 10 8 6 8 7 9 8 8 8 8 8 11 9 11 12 13 12 10
37 35 35 35 36 38 41 42 40 39 44 43 41 37 36 35 30 28 24 20 19 18 18 16 17 15 15 14 13 11 11 11 11 11 12 11 11 10 14 13 13 13 14 15 15
38 38 37 36 35 38 41 41 39 44 46 45 43 43 40 40 36 33 28 24 22 21 21 20 19 18 17 17 16 15 15 14 15 14 15 16 16 16 16 17 17 16 16 17 17
40 40 39 39 37 37 38 38 40 39 42 46 48 46 45 43 41 35 31 28 25 24 25 23 21 19 19 19 17 17 16 16 17 18 18 19 21 20 20 20 21 20 19 18 20
41 41 40 40 39 38 37 38 37 38 39 43 48 53 51 45 45 38 34 30 29 27 27 26 24 21 19 17 16 15 15 15 16 18 19 20 20 24 22 26 24 23 23 21 21
42 42 41 40 40 39 39 40 41 40 35 40 45 49 50 46 46 41 38 34 32 31 29 29 26 24 21 19 17 17 15 15 16 18 18 19 18 22 21 25 27 26 26 25 24
44 43 43 42 41 41 39 41 39 39 40 35 42 45 48 48 46 45 42 38 35 33 33 30 30 27 24 21 20 18 18 17 17 19 19 19 19 20 19 24 24 26 26 25 24
47 45 44 43 41 41 40 41 41 40 41 38 39 44 47 50 50 49 44 40 37 36 33 32 32 29 27 25 23 21 20 22 17 19 21 21 20 18 19 21 22 23 24 23 23
48 46 44 43 41 41 42 39 41 41 42 40 39 39 44 47 47 51 45 42 38 36 32 32 32 29 28 26 24 24 23 22 19 21 22 24 24 21 24 23 21 21 21 22 20
48 46 43 43 40 38 43 40 38 42 43 44 40 41 43 47 50 47 47 44 43 39 39 33 33 30 28 26 26 25 22 22 25 20 24 25 25 27 23 22 19 19 19 18 17
49 46 43 42 38 37 39 44 39 39 45 43 42 42 44 47 47 50 50 50 47 41 33 34 33 28 31 28 26 24 24 27 27 20 24 25 25 26 20 20 19 17 17 16 15
49 46 43 41 42 36 34 33 40 37 40 45 47 48 44 53 52 53 50 50 45 38 35 41 31 33 31 25 25 27 26 25 25 22 24 27 27 25 22 20 18 15 13 15 15
47 48 44 41 42 38 37 31 33 35 32 44 47 50 50 50 54 54 54 51 50 47 39 36 35 33 29 27 27 27 26 26 25 22 26 27 26 21 17 18 16 15 13 15 16
48 49 46 44 44 39 36 34 29 27 21 34 39 45 53 54 51 52 50 51 48 32 26 31 30 22 27 26 27 26 24 25 24 23 26 25 23 15 17 17 17 18 16 16 17
49 51 47 44 43 37 35 31 32 27 22 23 28 32 43 45 42 46 43 35 26 24 29 26 28 27 27 24 24 22 23 23 23 25 26 25 24 16 13 17 19 19 18 17 19
51 54 51 48 45 42 38 35 34 27 24 22 18 27 33 39 37 29 25 23 27 27 25 26 23 24 23 23 21 23 23 24 25 27 26 23 23 19 15 18 18 19 18 20 22
54 55 56 52 47 43 36 32 35 26 25 24 18 19 28 31 32 30 31 29 28 28 26 29 25 27 25 22 20 22 22 23 25 24 24 20 20 20 17 21 18 19 20 22 24
58 56 51 55 52 41 40 31 35 27 22 20 22 18 22 27 24 20 27 33 33 31 31 32 25 26 22 20 23 21 22 21 21 21 19 13 17 17 20 23 23 19 21 24 25
61 59 58 53 55 50 45 40 30 33 23 22 23 24 21 25 23 23 24 23 26 29 25 30 30 25 23 23 23 21 20 20 19 20 20 17 17 15 19 22 23 23 23 24 27
61 60 59 58 56 51 46 40 38 37 26 27 24 23 24 23 25 24 23 23 24 23 22 23 24 23 23 24 24 22 20 20 20 21 20 18 17 18 18 20 23 26 27 27 28
60 61 60 59 56 53 44 41 34 44 31 29 27 22 24 21 19 27 25 20 22 25 23 23 22 21 24 22 21 19 19 20 21 20 22 20 21 19 20 21 24 25 28 29 29
61 64 60 56 53 53 46 45 35 31 32 33 28 23 28 22 22 18 24 29 22 23 22 22 25 23 22 19 20 21 18 21 23 23 24 23 19 21 23 25 26 26 27 29 27
70 65 61 59 55 43 46 49 38 37 33 33 28 24 26 23 23 23 18 19 21 22 22 22 23 24 20 21 24 21 19 21 24 26 24 30 22 24 24 28 28 27 30 32 32
68 64 58 53 53 48 50 51 42 40 36 32 31 28 29 32 28 27 26 22 21 22 23 24 24 19 20 22 20 19 21 24 27 27 24 29 26 26 29 34 32 29 35 35 34
68 63 55 52 53 50 52 50 50 36 41 36 35 32 26 35 35 30 25 25 25 26 26 25 23 24 24 27 23 23 25 25 26 25 31 23 31 24 31 38 38 37 39 40 38
60 60 58 54 57 55 52 55 50 43 41 38 35 32 31 30 27 28 30 31 30 29 29 29 28 27 26 27 29 28 31 28 27 26 30 29 27 29 34 32 36 40 44 46 44
58 58 59 60 57 54 48 47 40 46 43 44 40 39 37 34 33 33 33 32 31 30 29 29 30 30 29 30 33 33 27 29 27 28 29 29 28 32 35 33 34 39 43 47 49
Wind_Direction
241 243 241 241 236 235 239 243 242 239 235 232 234 237 242 242 244 249 245 245 246 246 249 242 247 249 251 252 255 261 279 284 291 295 305 299 302 304 304 302 296 306 312 308 308
242 242 244 241 239 239 235 238 235 246 237 235 235 236 238 241 243 242 246 244 245 245 247 242 245 247 253 252 255 258 262 271 276 286 287 287 288 286 289 294 299 294 298 300 304
240 241 239 244 242 239 237 236 238 236 239 237 237 234 236 238 239 240 241 243 244 245 248 247 246 250 255 258 256 258 262 267 271 274 276 281 281 279 280 283 285 288 286 290 296
238 239 239 239 242 240 242 240 241 238 240 238 235 237 234 235 239 239 241 243 244 245 247 248 248 250 259 257 253 258 267 269 272 269 271 274 277 276 278 281 279 283 283 285 289
240 240 239 239 238 239 238 236 238 242 242 238 235 238 239 231 236 238 240 241 245 246 246 245 247 250 253 255 256 258 266 268 271 275 276 276 278 278 277 277 278 280 282 282 281
238 238 239 239 240 239 241 239 245 245 245 241 238 239 243 226 233 235 242 240 240 245 247 244 247 249 253 255 259 262 264 265 271 280 281 280 284 285 285 278 276 276 279 283 284
238 238 238 239 240 241 243 244 248 243 239 241 239 238 238 226 231 236 238 240 240 239 242 245 243 246 250 255 258 261 263 266 271 278 280 282 287 295 288 280 277 274 276 279 282
235 238 240 241 242 241 241 245 245 243 239 236 239 237 236 236 236 234 234 236 239 240 238 242 245 245 248 251 256 258 260 266 272 278 281 284 286 303 295 285 283 279 276 276 281
231 235 237 242 244 246 243 244 242 242 241 234 236 241 237 233 232 232 231 235 236 237 234 240 243 244 246 248 253 254 257 264 266 276 279 285 289 301 293 288 285 281 279 278 277
227 232 234 239 244 248 248 245 246 244 242 239 238 241 240 234 233 235 236 234 233 231 236 236 240 241 246 246 250 256 259 267 274 273 279 283 295 302 289 286 283 282 280 278 274
225 229 230 234 238 242 249 252 249 241 239 240 237 242 240 239 234 233 234 234 234 230 226 230 234 240 243 243 250 254 257 270 269 271 276 281 292 301 286 284 283 280 280 273 269
222 226 228 231 234 240 244 246 246 254 244 241 242 244 246 238 237 236 233 234 230 224 222 231 229 231 240 243 244 256 261 263 264 270 275 281 292 294 287 284 281 278 271 268 268
222 224 225 225 229 234 232 240 245 247 254 242 243 239 243 243 243 237 231 227 226 227 226 231 229 233 237 243 245 251 258 262 265 268 277 285 289 282 281 280 277 272 269 265 266
221 224 223 226 226 230 228 236 244 246 247 241 237 235 240 239 240 234 232 230 228 220 230 237 235 231 239 242 249 254 258 259 263 273 280 288 281 269 275 277 275 274 268 268 270
220 222 222 225 228 234 226 233 239 249 261 247 238 231 227 230 224 226 216 216 220 221 223 231 230 228 237 241 248 252 255 259 267 275 280 288 278 264 269 272 276 276 275 271 275
218 221 222 222 227 230 227 229 233 234 250 259 239 221 221 211 204 211 220 215 211 213 225 229 234 238 237 238 244 247 252 262 268 272 275 274 278 281 277 279 275 275 275 274 278
217 219 221 219 225 228 232 234 227 235 235 246 246 233 225 218 217 210 214 213 223 229 232 237 225 231 229 233 242 248 253 261 266 268 269 266 276 287 285 280 281 281 280 279 282
214 218 223 222 222 221 226 231 224 221 223 237 246 254 247 224 228 217 225 215 217 226 227 232 221 221 231 237 238 245 252 260 265 266 269 271 281 288 291 291 288 283 283 283 285
214 213 221 224 227 218 220 228 219 220 224 227 240 243 256 218 219 217 232 230 214 219 236 217 227 228 226 234 241 244 254 250 260 262 268 279 280 284 287 290 291 293 290 289 291
217 215 217 220 221 222 223 225 227 231 221 225 231 238 245 228 216 206 219 217 216 217 221 225 230 227 233 240 246 249 244 246 255 263 269 271 277 284 287 291 293 294 294 295 295
215 217 216 219 227 223 226 225 229 225 214 222 227 231 227 229 225 204 202 207 211 212 224 226 235 232 237 240 239 241 244 250 258 263 269 274 283 289 279 283 288 289 293 295 297
214 216 212 217 219 224 220 215 226 221 212 223 224 230 223 212 225 223 213 208 217 227 222 233 233 230 233 236 241 245 250 255 261 264 265 277 276 285 287 290 289 291 294 296 298
218 216 218 216 216 218 213 215 220 220 213 222 224 229 226 193 219 206 224 219 218 219 218 224 228 234 231 240 246 252 253 256 260 266 278 276 288 284 288 284 284 291 292 294 297
218 217 216 215 215 215 216 220 222 221 219 222 227 230 229 207 218 230 208 216 219 226 225 226 231 238 242 243 249 253 256 261 266 272 276 277 281 286 286 283 287 288 290 294 300
213 213 215 216 212 214 215 218 222 217 217 222 226 230 230 217 213 211 224 224 227 229 231 238 242 243 250 260 260 260 261 263 271 276 275 278 278 289 280 289 296 295 293 294 297
214 215 214 212 218 225 220 218 220 218 218 221 228 224 231 230 216 230 226 227 229 231 233 238 240 246 246 255 262 266 269 277 275 272 274 278 280 272 280 284 288 290 292 295 297
210 212 214 214 215 216 214 213 220 220 219 219 224 212 220 226 220 221 226 228 232 235 239 243 246 248 252 255 263 263 272 272 273 276 277 278 278 278 279 284 282 286 290 295 299
Height
5798 5800 5804 5807 5810 5814 5817 5822 5825 5829 5833 5838 5841 5844 5848 5851 5854 5855 5856 5858 5859 5860 5861 5862 5863 5864 5864 5864 5865 5865 5866 5866 5866 5866 5866 5866 5866 5866 5866 5865 5863 5863 5862 5861 5862
5791 5795 5797 5800 5802 5805 5810 5815 5816 5821 5826 5831 5835 5838 5842 5846 5848 5850 5853 5854 5855 5856 5858 5858 5860 5861 5862 5862 5863 5863 5864 5863 5864 5864 5864 5865 5865 5865 5864 5863 5863 5861 5861 5860 5859
5784 5788 5791 5793 5796 5799 5804 5806 5809 5813 5818 5824 5828 5832 5836 5839 5842 5845 5848 5849 5850 5852 5854 5855 5856 5858 5859 5859 5861 5860 5861 5861 5861 5861 5862 5862 5863 5862 5861 5861 5860 5860 5859 5857 5857
5777 5780 5783 5786 5789 5793 5795 5798 5801 5805 5810 5815 5820 5824 5829 5832 5836 5841 5843 5844 5846 5847 5849 5850 5852 5853 5854 5855 5856 5857 5857 5858 5858 5857 5858 5858 5858 5858 5859 5858 5857 5857 5857 5856 5855
5769 5772 5776 5779 5782 5785 5788 5791 5795 5799 5802 5806 5811 5816 5819 5825 5829 5833 5837 5839 5841 5843 5844 5846 5848 5849 5850 5851 5852 5853 5854 5854 5853 5854 5853 5854 5854 5853 5854 5853 5853 5853 5853 5852 5851
5761 5765 5768 5771 5774 5778 5781 5784 5788 5791 5794 5799 5802 5807 5811 5818 5822 5826 5831 5834 5836 5838 5839 5841 5843 5845 5846 5847 5848 5849 5850 5850 5850 5850 5849 5849 5850 5849 5850 5848 5847 5848 5848 5848 5847
5753 5757 5761 5764 5768 5771 5774 5776 5781 5785 5789 5792 5795 5799 5803 5807 5815 5819 5823 5827 5830 5831 5833 5836 5838 5840 5842 5843 5843 5844 5846 5846 5847 5846 5845 5845 5847 5845 5845 5842 5841 5842 5842 5842 5841
5745 5749 5753 5756 5760 5764 5768 5770 5773 5777 5781 5784 5787 5791 5798 5799 5807 5811 5816 5820 5823 5825 5828 5829 5832 5834 5837 5838 5839 5840 5840 5840 5843 5842 5841 5841 5843 5841 5839 5837 5836 5837 5837 5836 5836
5737 5740 5746 5749 5753 5756 5759 5763 5765 5769 5772 5776 5780 5785 5790 5793 5798 5803 5808 5812 5816 5819 5821 5823 5827 5829 5830 5832 5834 5834 5834 5835 5839 5838 5837 5836 5835 5839 5835 5833 5831 5832 5832 5832 5831
5728 5732 5739 5743 5746 5749 5751 5755 5758 5761 5765 5769 5774 5779 5782 5786 5789 5794 5799 5804 5808 5811 5813 5817 5821 5823 5824 5826 5827 5829 5831 5830 5830 5836 5831 5832 5830 5831 5830 5828 5826 5827 5827 5828 5828
5719 5724 5730 5735 5740 5743 5745 5748 5753 5756 5758 5763 5768 5771 5774 5778 5782 5787 5792 5795 5799 5804 5807 5809 5814 5818 5817 5820 5822 5824 5825 5826 5825 5828 5827 5826 5826 5824 5825 5824 5821 5821 5823 5823 5824
5710 5716 5721 5727 5732 5736 5739 5742 5745 5748 5750 5752 5757 5762 5766 5771 5775 5779 5784 5788 5792 5799 5797 5800 5808 5808 5812 5815 5816 5818 5819 5820 5820 5823 5821 5820 5820 5820 5819 5818 5817 5817 5819 5819 5820
5701 5708 5714 5719 5724 5730 5732 5737 5739 5742 5742 5744 5748 5753 5757 5762 5766 5771 5776 5779 5783 5786 5789 5795 5798 5801 5806 5808 5811 5812 5813 5815 5816 5817 5815 5815 5816 5815 5814 5813 5813 5813 5815 5816 5815
5693 5700 5706 5710 5718 5721 5726 5731 5735 5736 5737 5738 5741 5744 5746 5753 5759 5762 5768 5773 5776 5781 5784 5787 5790 5796 5798 5802 5805 5807 5809 5809 5810 5810 5809 5809 5809 5812 5810 5809 5809 5810 5810 5811 5811
5684 5691 5698 5704 5708 5715 5718 5724 5728 5731 5733 5735 5734 5739 5741 5746 5756 5756 5759 5763 5769 5774 5776 5785 5787 5789 5793 5796 5799 5802 5803 5804 5804 5804 5804 5802 5803 5806 5806 5805 5805 5806 5805 5806 5807
5674 5682 5687 5695 5701 5706 5713 5717 5722 5727 5729 5732 5731 5734 5738 5741 5744 5750 5753 5758 5763 5768 5772 5776 5783 5785 5788 5790 5793 5797 5798 5798 5798 5798 5799 5800 5798 5800 5802 5801 5801 5801 5801 5801 5801
5664 5672 5680 5685 5692 5699 5706 5710 5716 5720 5724 5728 5729 5731 5733 5737 5740 5744 5748 5754 5760 5764 5769 5770 5776 5778 5782 5785 5788 5790 5791 5792 5793 5793 5792 5794 5794 5793 5796 5794 5796 5796 5796 5796 5795
5653 5662 5669 5675 5683 5693 5698 5705 5710 5715 5719 5721 5723 5726 5729 5730 5733 5738 5742 5746 5752 5758 5761 5763 5770 5773 5777 5781 5782 5784 5786 5787 5787 5787 5788 5790 5790 5791 5789 5787 5788 5791 5790 5789 5789
5643 5650 5660 5668 5676 5684 5692 5698 5707 5709 5713 5716 5719 5722 5725 5726 5730 5734 5739 5743 5746 5751 5755 5758 5761 5767 5772 5775 5777 5780 5781 5782 5782 5783 5783 5786 5786 5787 5785 5783 5782 5782 5783 5784 5783
5633 5642 5652 5659 5667 5675 5684 5694 5702 5704 5708 5711 5714 5718 5721 5723 5726 5730 5735 5741 5744 5748 5750 5753 5758 5762 5766 5769 5772 5774 5775 5776 5777 5778 5779 5780 5781 5781 5781 5779 5777 5775 5776 5776 5776
5622 5632 5641 5649 5658 5668 5678 5689 5694 5697 5703 5707 5710 5713 5716 5719 5721 5725 5730 5736 5740 5744 5746 5751 5753 5759 5761 5764 5765 5768 5770 5771 5771 5773 5773 5774 5776 5776 5775 5775 5773 5771 5769 5769 5768
5614 5622 5632 5641 5651 5661 5671 5681 5685 5692 5696 5701 5704 5708 5711 5716 5719 5721 5725 5729 5735 5738 5742 5746 5748 5752 5756 5758 5760 5762 5765 5765 5766 5768 5769 5768 5773 5770 5768 5766 5765 5765 5764 5761 5760
5603 5614 5623 5633 5642 5652 5666 5673 5676 5684 5690 5695 5699 5703 5707 5711 5716 5719 5722 5727 5731 5735 5738 5742 5745 5746 5751 5754 5755 5757 5759 5760 5761 5762 5764 5761 5766 5763 5762 5759 5759 5758 5756 5754 5753
5592 5603 5614 5627 5638 5647 5658 5665 5670 5679 5685 5689 5693 5698 5702 5706 5712 5714 5719 5724 5726 5730 5734 5735 5739 5742 5745 5747 5751 5752 5753 5754 5755 5757 5758 5757 5757 5757 5754 5749 5751 5752 5747 5747 5745
5583 5597 5614 5620 5630 5639 5648 5658 5663 5672 5678 5683 5688 5692 5697 5700 5704 5709 5714 5717 5721 5724 5728 5731 5735 5737 5739 5740 5744 5745 5747 5749 5750 5752 5747 5752 5746 5750 5744 5740 5739 5740 5738 5736 5737
5580 5592 5605 5614 5622 5631 5639 5647 5656 5666 5672 5678 5683 5687 5691 5695 5700 5704 5707 5711 5714 5719 5722 5726 5729 5731 5735 5735 5735 5738 5739 5743 5743 5743 5741 5740 5741 5738 5737 5737 5734 5731 5726 5726 5726
5576 5583 5595 5604 5613 5622 5634 5645 5654 5659 5664 5671 5675 5678 5683 5689 5693 5698 5704 5708 5711 5715 5718 5720 5722 5725 5727 5728 5728 5730 5737 5735 5735 5734 5733 5733 5733 5731 5729 5730 5727 5724 5719 5715 5712